owner,sensor,date,latitude,longitude,air_temperature,qcFlag 
NDBC,ioos:station:wmo:42056:1,2017-01-01T00:40:00Z,19.8020,-84.8570,27.1,1111122 
NDBC,ioos:station:wmo:42056:1,2017-01-01T01:40:00Z,19.8020,-84.8570,27.2,1111122 
NDBC,ioos:station:wmo:42056:1,2017-01-01T02:40:00Z,19.8020,-84.8570,27.2,1111122 
NDBC,ioos:station:wmo:42056:1,2017-01-01T03:40:00Z,19.8020,-84.8570,27.2,1111122 
NDBC,ioos:station:wmo:42056:1,2017-01-01T04:40:00Z,19.8020,-84.8570,27.1,1111122 
NDBC,ioos:station:wmo:42056:1,2017-01-01T05:40:00Z,19.8020,-84.8570,27.2,1111122 
NDBC,ioos:station:wmo:42056:1,2017-01-01T06:40:00Z,19.8020,-84.8570,27.1,1111122 
NDBC,ioos:station:wmo:42056:1,2017-01-01T07:40:00Z,19.8020,-84.8570,27.1,1111122 
NDBC,ioos:station:wmo:42056:1,2017-01-01T08:40:00Z,19.8020,-84.8570,27.2,1111122 
NDBC,ioos:station:wmo:42056:1,2017-01-01T09:40:00Z,19.8020,-84.8570,27.1,1111122 
NDBC,ioos:station:wmo:42056:1,2017-01-01T10:50:00Z,19.8020,-84.8570,27.1,1111122 
NDBC,ioos:station:wmo:42056:1,2017-01-01T11:50:00Z,19.8020,-84.8570,27.1,1111122 
NDBC,ioos:station:wmo:42056:1,2017-01-01T12:40:00Z,19.8020,-84.8570,27.2,1111122 
NDBC,ioos:station:wmo:42056:1,2017-01-01T13:10:00Z,19.8020,-84.8570,27.2,1111122 
NDBC,ioos:station:wmo:42056:1,2017-01-01T14:50:00Z,19.8020,-84.8570,27.4,1111122 
NDBC,ioos:station:wmo:42056:1,2017-01-01T15:50:00Z,19.8020,-84.8570,27.5,1111122 
NDBC,ioos:station:wmo:42056:1,2017-01-01T16:40:00Z,19.8020,-84.8570,27.6,1111122 
NDBC,ioos:station:wmo:42056:1,2017-01-01T17:40:00Z,19.8020,-84.8570,27.6,1111122 
NDBC,ioos:station:wmo:42056:1,2017-01-01T18:40:00Z,19.8020,-84.8570,27.6,1111122 
NDBC,ioos:station:wmo:42056:1,2017-01-01T19:40:00Z,19.8020,-84.8570,27.7,1111122 
NDBC,ioos:station:wmo:42056:1,2017-01-01T20:50:00Z,19.8020,-84.8570,27.7,1111122 
NDBC,ioos:station:wmo:42056:1,2017-01-01T21:40:00Z,19.8020,-84.8570,27.7,1111122 
NDBC,ioos:station:wmo:42056:1,2017-01-01T22:40:00Z,19.8020,-84.8570,27.7,1111122 
NDBC,ioos:station:wmo:42056:1,2017-01-02T00:40:00Z,19.8020,-84.8570,27.6,1111122 
NDBC,ioos:station:wmo:42056:1,2017-01-02T01:10:00Z,19.8020,-84.8570,27.6,1111122 
NDBC,ioos:station:wmo:42056:1,2017-01-02T02:40:00Z,19.8020,-84.8570,27.6,1111122 
NDBC,ioos:station:wmo:42056:1,2017-01-02T03:40:00Z,19.8020,-84.8570,27.6,1111122 
NDBC,ioos:station:wmo:42056:1,2017-01-02T04:40:00Z,19.8020,-84.8570,27.6,1111122 
NDBC,ioos:station:wmo:42056:1,2017-01-02T05:50:00Z,19.8020,-84.8570,27.5,1111122 
NDBC,ioos:station:wmo:42056:1,2017-01-02T06:40:00Z,19.8020,-84.8570,27.4,1111122 
NDBC,ioos:station:wmo:42056:1,2017-01-02T07:40:00Z,19.8020,-84.8570,27.4,1111122 
NDBC,ioos:station:wmo:42056:1,2017-01-02T08:40:00Z,19.8020,-84.8570,27.2,1111122 
NDBC,ioos:station:wmo:42056:1,2017-01-02T09:40:00Z,19.8020,-84.8570,27.2,1111122 
NDBC,ioos:station:wmo:42056:1,2017-01-02T10:40:00Z,19.8020,-84.8570,27.2,1111122 
NDBC,ioos:station:wmo:42056:1,2017-01-02T11:50:00Z,19.8020,-84.8570,27.2,1111122 
NDBC,ioos:station:wmo:42056:1,2017-01-02T12:40:00Z,19.8020,-84.8570,27.4,1111122 
NDBC,ioos:station:wmo:42056:1,2017-01-02T13:00:00Z,19.8020,-84.8570,27.4,1111122 
NDBC,ioos:station:wmo:42056:1,2017-01-02T14:50:00Z,19.8020,-84.8570,27.5,1111122 
NDBC,ioos:station:wmo:42056:1,2017-01-02T15:40:00Z,19.8020,-84.8570,27.7,1111122 
NDBC,ioos:station:wmo:42056:1,2017-01-02T16:40:00Z,19.8020,-84.8570,27.7,1111122 
NDBC,ioos:station:wmo:42056:1,2017-01-02T17:40:00Z,19.8020,-84.8570,27.8,1111122 
NDBC,ioos:station:wmo:42056:1,2017-01-02T18:40:00Z,19.8020,-84.8570,27.8,1111122 
NDBC,ioos:station:wmo:42056:1,2017-01-02T19:40:00Z,19.8020,-84.8570,28.0,1111122 
NDBC,ioos:station:wmo:42056:1,2017-01-02T20:40:00Z,19.8020,-84.8570,27.9,1111122 
NDBC,ioos:station:wmo:42056:1,2017-01-02T21:40:00Z,19.8020,-84.8570,26.2,1111122 
NDBC,ioos:station:wmo:42056:1,2017-01-02T22:40:00Z,19.8020,-84.8570,26.9,1111122 
NDBC,ioos:station:wmo:42056:1,2017-01-02T23:40:00Z,19.8020,-84.8570,27.0,1111122 
NDBC,ioos:station:wmo:42056:1,2017-01-03T00:40:00Z,19.8020,-84.8570,27.5,1111122 
NDBC,ioos:station:wmo:42056:1,2017-01-03T01:10:00Z,19.8020,-84.8570,27.1,1111122 
NDBC,ioos:station:wmo:42056:1,2017-01-03T02:40:00Z,19.8020,-84.8570,27.5,1111122 
NDBC,ioos:station:wmo:42056:1,2017-01-03T03:40:00Z,19.8020,-84.8570,27.6,1111122 
NDBC,ioos:station:wmo:42056:1,2017-01-03T04:40:00Z,19.8020,-84.8570,27.8,1111122 
NDBC,ioos:station:wmo:42056:1,2017-01-03T05:40:00Z,19.8020,-84.8570,27.7,1111122 
NDBC,ioos:station:wmo:42056:1,2017-01-03T06:40:00Z,19.8020,-84.8570,27.6,1111122 
NDBC,ioos:station:wmo:42056:1,2017-01-03T07:40:00Z,19.8020,-84.8570,27.4,1111122 
NDBC,ioos:station:wmo:42056:1,2017-01-03T08:50:00Z,19.8020,-84.8570,27.5,1111122 
NDBC,ioos:station:wmo:42056:1,2017-01-03T09:40:00Z,19.8020,-84.8570,27.4,1111122 
NDBC,ioos:station:wmo:42056:1,2017-01-03T10:40:00Z,19.8020,-84.8570,27.3,1111122 
NDBC,ioos:station:wmo:42056:1,2017-01-03T11:50:00Z,19.8020,-84.8570,27.3,1111122 
NDBC,ioos:station:wmo:42056:1,2017-01-03T12:40:00Z,19.8020,-84.8570,27.4,1111122 
NDBC,ioos:station:wmo:42056:1,2017-01-03T13:20:00Z,19.8020,-84.8570,27.5,1111122 
NDBC,ioos:station:wmo:42056:1,2017-01-03T14:40:00Z,19.8020,-84.8570,27.4,1111122 
NDBC,ioos:station:wmo:42056:1,2017-01-03T15:40:00Z,19.8020,-84.8570,27.6,1111122 
NDBC,ioos:station:wmo:42056:1,2017-01-03T16:40:00Z,19.8020,-84.8570,27.6,1111122 
NDBC,ioos:station:wmo:42056:1,2017-01-03T17:40:00Z,19.8020,-84.8570,27.7,1111122 
NDBC,ioos:station:wmo:42056:1,2017-01-03T18:40:00Z,19.8020,-84.8570,27.7,1111122 
NDBC,ioos:station:wmo:42056:1,2017-01-03T19:40:00Z,19.8020,-84.8570,27.7,1111122 
NDBC,ioos:station:wmo:42056:1,2017-01-03T20:40:00Z,19.8020,-84.8570,27.7,1111122 
NDBC,ioos:station:wmo:42056:1,2017-01-03T21:40:00Z,19.8020,-84.8570,27.8,1111122 
NDBC,ioos:station:wmo:42056:1,2017-01-03T22:40:00Z,19.8020,-84.8570,27.6,1111122 
NDBC,ioos:station:wmo:42056:1,2017-01-03T23:40:00Z,19.8020,-84.8570,27.5,1111122 
NDBC,ioos:station:wmo:42056:1,2017-01-04T00:50:00Z,19.8020,-84.8570,27.4,1111122 
NDBC,ioos:station:wmo:42056:1,2017-01-04T01:10:00Z,19.8020,-84.8570,27.6,1111122 
NDBC,ioos:station:wmo:42056:1,2017-01-04T02:40:00Z,19.8020,-84.8570,27.4,1111122 
NDBC,ioos:station:wmo:42056:1,2017-01-04T03:40:00Z,19.8020,-84.8570,27.4,1111122 
NDBC,ioos:station:wmo:42056:1,2017-01-04T04:40:00Z,19.8020,-84.8570,27.3,1111122 
NDBC,ioos:station:wmo:42056:1,2017-01-04T05:40:00Z,19.8020,-84.8570,27.3,1111122 
NDBC,ioos:station:wmo:42056:1,2017-01-04T06:40:00Z,19.8020,-84.8570,27.2,1111122 
NDBC,ioos:station:wmo:42056:1,2017-01-04T07:40:00Z,19.8020,-84.8570,27.1,1111122 
NDBC,ioos:station:wmo:42056:1,2017-01-04T08:40:00Z,19.8020,-84.8570,27.1,1111122 
NDBC,ioos:station:wmo:42056:1,2017-01-04T09:40:00Z,19.8020,-84.8570,27.0,1111122 
NDBC,ioos:station:wmo:42056:1,2017-01-04T10:40:00Z,19.8020,-84.8570,26.9,1111122 
NDBC,ioos:station:wmo:42056:1,2017-01-04T11:50:00Z,19.8020,-84.8570,26.9,1111122 
NDBC,ioos:station:wmo:42056:1,2017-01-04T12:40:00Z,19.8020,-84.8570,27.1,1111122 
NDBC,ioos:station:wmo:42056:1,2017-01-04T13:10:00Z,19.8020,-84.8570,27.0,1111122 
NDBC,ioos:station:wmo:42056:1,2017-01-04T14:40:00Z,19.8020,-84.8570,27.2,1111122 
NDBC,ioos:station:wmo:42056:1,2017-01-04T15:40:00Z,19.8020,-84.8570,27.4,1111122 
NDBC,ioos:station:wmo:42056:1,2017-01-04T16:40:00Z,19.8020,-84.8570,27.6,1111122 
NDBC,ioos:station:wmo:42056:1,2017-01-04T17:40:00Z,19.8020,-84.8570,27.5,1111122 
NDBC,ioos:station:wmo:42056:1,2017-01-04T18:40:00Z,19.8020,-84.8570,27.6,1111122 
NDBC,ioos:station:wmo:42056:1,2017-01-04T19:40:00Z,19.8020,-84.8570,28.0,1111122 
NDBC,ioos:station:wmo:42056:1,2017-01-04T20:40:00Z,19.8020,-84.8570,27.6,1111122 
NDBC,ioos:station:wmo:42056:1,2017-01-04T21:40:00Z,19.8020,-84.8570,27.6,1111122 
NDBC,ioos:station:wmo:42056:1,2017-01-04T22:40:00Z,19.8020,-84.8570,27.9,1111122 
NDBC,ioos:station:wmo:42056:1,2017-01-04T23:40:00Z,19.8020,-84.8570,27.2,1111122 
NDBC,ioos:station:wmo:42056:1,2017-01-05T00:40:00Z,19.8020,-84.8570,27.1,1111122 
NDBC,ioos:station:wmo:42056:1,2017-01-05T01:10:00Z,19.8020,-84.8570,27.1,1111122 
NDBC,ioos:station:wmo:42056:1,2017-01-05T02:10:00Z,19.8020,-84.8570,26.9,1111122 
NDBC,ioos:station:wmo:42056:1,2017-01-05T03:40:00Z,19.8020,-84.8570,27.0,1111122 
NDBC,ioos:station:wmo:42056:1,2017-01-05T04:50:00Z,19.8020,-84.8570,27.0,1111122 
NDBC,ioos:station:wmo:42056:1,2017-01-05T05:40:00Z,19.8020,-84.8570,26.9,1111122 
NDBC,ioos:station:wmo:42056:1,2017-01-05T06:40:00Z,19.8020,-84.8570,26.8,1111122 
NDBC,ioos:station:wmo:42056:1,2017-01-05T07:40:00Z,19.8020,-84.8570,26.8,1111122 
NDBC,ioos:station:wmo:42056:1,2017-01-05T08:40:00Z,19.8020,-84.8570,26.8,1111122 
NDBC,ioos:station:wmo:42056:1,2017-01-05T09:40:00Z,19.8020,-84.8570,26.6,1111122 
NDBC,ioos:station:wmo:42056:1,2017-01-05T10:40:00Z,19.8020,-84.8570,26.6,1111122 
NDBC,ioos:station:wmo:42056:1,2017-01-05T11:40:00Z,19.8020,-84.8570,26.6,1111122 
NDBC,ioos:station:wmo:42056:1,2017-01-05T12:40:00Z,19.8020,-84.8570,26.6,1111122 
NDBC,ioos:station:wmo:42056:1,2017-01-05T13:40:00Z,19.8020,-84.8570,26.6,1111122 
NDBC,ioos:station:wmo:42056:1,2017-01-05T14:40:00Z,19.8020,-84.8570,26.6,1111122 
NDBC,ioos:station:wmo:42056:1,2017-01-05T15:50:00Z,19.8020,-84.8570,26.7,1111122 
NDBC,ioos:station:wmo:42056:1,2017-01-05T16:40:00Z,19.8020,-84.8570,27.0,1111122 
NDBC,ioos:station:wmo:42056:1,2017-01-05T17:40:00Z,19.8020,-84.8570,27.1,1111122 
NDBC,ioos:station:wmo:42056:1,2017-01-05T18:40:00Z,19.8020,-84.8570,27.2,1111122 
NDBC,ioos:station:wmo:42056:1,2017-01-05T19:40:00Z,19.8020,-84.8570,27.2,1111122 
NDBC,ioos:station:wmo:42056:1,2017-01-05T20:40:00Z,19.8020,-84.8570,27.1,1111122 
NDBC,ioos:station:wmo:42056:1,2017-01-05T21:40:00Z,19.8020,-84.8570,27.3,1111122 
NDBC,ioos:station:wmo:42056:1,2017-01-05T22:50:00Z,19.8020,-84.8570,27.0,1111122 
NDBC,ioos:station:wmo:42056:1,2017-01-05T23:50:00Z,19.8020,-84.8570,26.8,1111122 
NDBC,ioos:station:wmo:42056:1,2017-01-06T00:40:00Z,19.8020,-84.8570,26.8,1111122 
NDBC,ioos:station:wmo:42056:1,2017-01-06T00:50:00Z,19.8020,-84.8570,26.8,1111122 
NDBC,ioos:station:wmo:42056:1,2017-01-06T01:20:00Z,19.8020,-84.8570,26.8,1111122 
NDBC,ioos:station:wmo:42056:1,2017-01-06T03:40:00Z,19.8020,-84.8570,26.9,1111122 
NDBC,ioos:station:wmo:42056:1,2017-01-06T04:40:00Z,19.8020,-84.8570,26.9,1111122 
NDBC,ioos:station:wmo:42056:1,2017-01-06T05:40:00Z,19.8020,-84.8570,27.0,1111122 
NDBC,ioos:station:wmo:42056:1,2017-01-06T06:40:00Z,19.8020,-84.8570,26.9,1111122 
NDBC,ioos:station:wmo:42056:1,2017-01-06T07:40:00Z,19.8020,-84.8570,26.9,1111122 
NDBC,ioos:station:wmo:42056:1,2017-01-06T08:40:00Z,19.8020,-84.8570,26.8,1111122 
NDBC,ioos:station:wmo:42056:1,2017-01-06T09:40:00Z,19.8020,-84.8570,26.8,1111122 
NDBC,ioos:station:wmo:42056:1,2017-01-06T10:40:00Z,19.8020,-84.8570,26.8,1111122 
NDBC,ioos:station:wmo:42056:1,2017-01-06T11:40:00Z,19.8020,-84.8570,26.8,1111122 
NDBC,ioos:station:wmo:42056:1,2017-01-06T12:40:00Z,19.8020,-84.8570,26.9,1111122 
NDBC,ioos:station:wmo:42056:1,2017-01-06T13:10:00Z,19.8020,-84.8570,27.1,1111122 
NDBC,ioos:station:wmo:42056:1,2017-01-06T14:40:00Z,19.8020,-84.8570,27.4,1111122 
NDBC,ioos:station:wmo:42056:1,2017-01-06T15:40:00Z,19.8020,-84.8570,27.4,1111122 
NDBC,ioos:station:wmo:42056:1,2017-01-06T16:40:00Z,19.8020,-84.8570,27.4,1111122 
NDBC,ioos:station:wmo:42056:1,2017-01-06T17:40:00Z,19.8020,-84.8570,27.5,1111122 
NDBC,ioos:station:wmo:42056:1,2017-01-06T18:40:00Z,19.8020,-84.8570,27.5,1111122 
NDBC,ioos:station:wmo:42056:1,2017-01-06T19:40:00Z,19.8020,-84.8570,27.6,1111122 
NDBC,ioos:station:wmo:42056:1,2017-01-06T20:40:00Z,19.8020,-84.8570,27.6,1111122 
NDBC,ioos:station:wmo:42056:1,2017-01-06T21:40:00Z,19.8020,-84.8570,27.7,1111122 
NDBC,ioos:station:wmo:42056:1,2017-01-06T22:40:00Z,19.8020,-84.8570,27.6,1111122 
NDBC,ioos:station:wmo:42056:1,2017-01-07T00:40:00Z,19.8020,-84.8570,27.5,1111122 
NDBC,ioos:station:wmo:42056:1,2017-01-07T01:20:00Z,19.8020,-84.8570,27.5,1111122 
NDBC,ioos:station:wmo:42056:1,2017-01-07T02:40:00Z,19.8020,-84.8570,27.5,1111122 
NDBC,ioos:station:wmo:42056:1,2017-01-07T03:40:00Z,19.8020,-84.8570,27.5,1111122 
NDBC,ioos:station:wmo:42056:1,2017-01-07T04:40:00Z,19.8020,-84.8570,27.5,1111122 
NDBC,ioos:station:wmo:42056:1,2017-01-07T05:40:00Z,19.8020,-84.8570,27.5,1111122 
NDBC,ioos:station:wmo:42056:1,2017-01-07T06:40:00Z,19.8020,-84.8570,27.3,1111122 
NDBC,ioos:station:wmo:42056:1,2017-01-07T07:40:00Z,19.8020,-84.8570,27.5,1111122 
NDBC,ioos:station:wmo:42056:1,2017-01-07T08:40:00Z,19.8020,-84.8570,27.4,1111122 
NDBC,ioos:station:wmo:42056:1,2017-01-07T09:40:00Z,19.8020,-84.8570,27.4,1111122 
NDBC,ioos:station:wmo:42056:1,2017-01-07T10:40:00Z,19.8020,-84.8570,27.4,1111122 
NDBC,ioos:station:wmo:42056:1,2017-01-07T11:40:00Z,19.8020,-84.8570,27.5,1111122 
NDBC,ioos:station:wmo:42056:1,2017-01-07T12:40:00Z,19.8020,-84.8570,27.5,1111122 
NDBC,ioos:station:wmo:42056:1,2017-01-07T13:40:00Z,19.8020,-84.8570,27.6,1111122 
NDBC,ioos:station:wmo:42056:1,2017-01-07T14:40:00Z,19.8020,-84.8570,27.1,1111122 
NDBC,ioos:station:wmo:42056:1,2017-01-07T15:40:00Z,19.8020,-84.8570,28.0,1111122 
NDBC,ioos:station:wmo:42056:1,2017-01-07T16:40:00Z,19.8020,-84.8570,28.0,1111122 
NDBC,ioos:station:wmo:42056:1,2017-01-07T17:40:00Z,19.8020,-84.8570,28.0,1111122 
NDBC,ioos:station:wmo:42056:1,2017-01-07T18:40:00Z,19.8020,-84.8570,28.0,1111122 
NDBC,ioos:station:wmo:42056:1,2017-01-07T19:40:00Z,19.8020,-84.8570,28.6,1111122 
NDBC,ioos:station:wmo:42056:1,2017-01-07T20:40:00Z,19.8020,-84.8570,28.3,1111122 
NDBC,ioos:station:wmo:42056:1,2017-01-07T21:40:00Z,19.8020,-84.8570,28.3,1111122 
NDBC,ioos:station:wmo:42056:1,2017-01-07T22:50:00Z,19.8020,-84.8570,27.9,1111122 
NDBC,ioos:station:wmo:42056:1,2017-01-07T23:40:00Z,19.8020,-84.8570,27.8,1111122 
NDBC,ioos:station:wmo:42056:1,2017-01-08T00:40:00Z,19.8020,-84.8570,24.2,1111122 
NDBC,ioos:station:wmo:42056:1,2017-01-08T01:10:00Z,19.8020,-84.8570,25.6,1111122 
NDBC,ioos:station:wmo:42056:1,2017-01-08T02:40:00Z,19.8020,-84.8570,26.8,1111122 
NDBC,ioos:station:wmo:42056:1,2017-01-08T03:50:00Z,19.8020,-84.8570,24.5,1111122 
NDBC,ioos:station:wmo:42056:1,2017-01-08T04:40:00Z,19.8020,-84.8570,26.5,1111122 
NDBC,ioos:station:wmo:42056:1,2017-01-08T05:40:00Z,19.8020,-84.8570,26.3,1111122 
NDBC,ioos:station:wmo:42056:1,2017-01-08T06:40:00Z,19.8020,-84.8570,26.1,1111122 
NDBC,ioos:station:wmo:42056:1,2017-01-08T07:40:00Z,19.8020,-84.8570,25.4,1111122 
NDBC,ioos:station:wmo:42056:1,2017-01-08T08:40:00Z,19.8020,-84.8570,25.5,1111122 
NDBC,ioos:station:wmo:42056:1,2017-01-08T09:40:00Z,19.8020,-84.8570,25.3,1111122 
NDBC,ioos:station:wmo:42056:1,2017-01-08T10:40:00Z,19.8020,-84.8570,25.1,1111122 
NDBC,ioos:station:wmo:42056:1,2017-01-08T11:40:00Z,19.8020,-84.8570,24.7,1111122 
NDBC,ioos:station:wmo:42056:1,2017-01-08T14:10:00Z,19.8020,-84.8570,23.7,1111122 
NDBC,ioos:station:wmo:42056:1,2017-01-08T14:40:00Z,19.8020,-84.8570,23.5,1111122 
NDBC,ioos:station:wmo:42056:1,2017-01-08T15:40:00Z,19.8020,-84.8570,23.2,1111122 
NDBC,ioos:station:wmo:42056:1,2017-01-08T16:40:00Z,19.8020,-84.8570,22.7,1111122 
NDBC,ioos:station:wmo:42056:1,2017-01-08T17:40:00Z,19.8020,-84.8570,22.5,1111122 
NDBC,ioos:station:wmo:42056:1,2017-01-08T18:50:00Z,19.8020,-84.8570,22.3,1111122 
NDBC,ioos:station:wmo:42056:1,2017-01-08T19:40:00Z,19.8020,-84.8570,22.3,1111122 
NDBC,ioos:station:wmo:42056:1,2017-01-08T20:40:00Z,19.8020,-84.8570,22.4,1111122 
NDBC,ioos:station:wmo:42056:1,2017-01-08T21:40:00Z,19.8020,-84.8570,22.5,1111122 
NDBC,ioos:station:wmo:42056:1,2017-01-08T22:40:00Z,19.8020,-84.8570,22.8,1111122 
NDBC,ioos:station:wmo:42056:1,2017-01-08T23:50:00Z,19.8020,-84.8570,22.9,1111122 
NDBC,ioos:station:wmo:42056:1,2017-01-09T00:40:00Z,19.8020,-84.8570,23.0,1111122 
NDBC,ioos:station:wmo:42056:1,2017-01-09T01:40:00Z,19.8020,-84.8570,23.1,1111122 
NDBC,ioos:station:wmo:42056:1,2017-01-09T02:40:00Z,19.8020,-84.8570,23.3,1111122 
NDBC,ioos:station:wmo:42056:1,2017-01-09T03:40:00Z,19.8020,-84.8570,23.3,1111122 
NDBC,ioos:station:wmo:42056:1,2017-01-09T04:40:00Z,19.8020,-84.8570,23.6,1111122 
NDBC,ioos:station:wmo:42056:1,2017-01-09T05:40:00Z,19.8020,-84.8570,23.6,1111122 
NDBC,ioos:station:wmo:42056:1,2017-01-09T06:40:00Z,19.8020,-84.8570,24.0,1111122 
NDBC,ioos:station:wmo:42056:1,2017-01-09T07:40:00Z,19.8020,-84.8570,24.0,1111122 
NDBC,ioos:station:wmo:42056:1,2017-01-09T08:40:00Z,19.8020,-84.8570,24.1,1111122 
NDBC,ioos:station:wmo:42056:1,2017-01-09T09:40:00Z,19.8020,-84.8570,24.0,1111122 
NDBC,ioos:station:wmo:42056:1,2017-01-09T10:40:00Z,19.8020,-84.8570,24.1,1111122 
NDBC,ioos:station:wmo:42056:1,2017-01-09T11:40:00Z,19.8020,-84.8570,24.2,1111122 
NDBC,ioos:station:wmo:42056:1,2017-01-09T12:40:00Z,19.8020,-84.8570,24.4,1111122 
NDBC,ioos:station:wmo:42056:1,2017-01-09T13:20:00Z,19.8020,-84.8570,24.4,1111122 
NDBC,ioos:station:wmo:42056:1,2017-01-09T14:40:00Z,19.8020,-84.8570,24.6,1111122 
NDBC,ioos:station:wmo:42056:1,2017-01-09T15:40:00Z,19.8020,-84.8570,24.7,1111122 
NDBC,ioos:station:wmo:42056:1,2017-01-09T16:40:00Z,19.8020,-84.8570,24.8,1111122 
NDBC,ioos:station:wmo:42056:1,2017-01-09T17:40:00Z,19.8020,-84.8570,24.6,1111122 
NDBC,ioos:station:wmo:42056:1,2017-01-09T18:40:00Z,19.8020,-84.8570,24.6,1111122 
NDBC,ioos:station:wmo:42056:1,2017-01-09T19:40:00Z,19.8020,-84.8570,24.3,1111122 
NDBC,ioos:station:wmo:42056:1,2017-01-09T20:40:00Z,19.8020,-84.8570,24.5,1111122 
NDBC,ioos:station:wmo:42056:1,2017-01-09T21:40:00Z,19.8020,-84.8570,24.5,1111122 
NDBC,ioos:station:wmo:42056:1,2017-01-09T22:40:00Z,19.8020,-84.8570,24.4,1111122 
NDBC,ioos:station:wmo:42056:1,2017-01-09T23:40:00Z,19.8020,-84.8570,24.6,1111122 
NDBC,ioos:station:wmo:42056:1,2017-01-10T00:40:00Z,19.8020,-84.8570,24.8,1111122 
NDBC,ioos:station:wmo:42056:1,2017-01-10T01:10:00Z,19.8020,-84.8570,25.0,1111122 
NDBC,ioos:station:wmo:42056:1,2017-01-10T02:40:00Z,19.8020,-84.8570,25.0,1111122 
NDBC,ioos:station:wmo:42056:1,2017-01-10T03:40:00Z,19.8020,-84.8570,25.0,1111122 
NDBC,ioos:station:wmo:42056:1,2017-01-10T04:40:00Z,19.8020,-84.8570,25.1,1111122 
NDBC,ioos:station:wmo:42056:1,2017-01-10T05:40:00Z,19.8020,-84.8570,24.9,1111122 
NDBC,ioos:station:wmo:42056:1,2017-01-10T06:40:00Z,19.8020,-84.8570,24.6,1111122 
NDBC,ioos:station:wmo:42056:1,2017-01-10T07:40:00Z,19.8020,-84.8570,24.4,1111122 
NDBC,ioos:station:wmo:42056:1,2017-01-10T08:40:00Z,19.8020,-84.8570,24.3,1111122 
NDBC,ioos:station:wmo:42056:1,2017-01-10T09:40:00Z,19.8020,-84.8570,24.0,1111122 
NDBC,ioos:station:wmo:42056:1,2017-01-10T10:40:00Z,19.8020,-84.8570,25.0,1111122 
NDBC,ioos:station:wmo:42056:1,2017-01-10T11:40:00Z,19.8020,-84.8570,24.8,1111122 
NDBC,ioos:station:wmo:42056:1,2017-01-10T12:40:00Z,19.8020,-84.8570,24.5,1111122 
NDBC,ioos:station:wmo:42056:1,2017-01-10T13:30:00Z,19.8020,-84.8570,23.5,1111122 
NDBC,ioos:station:wmo:42056:1,2017-01-10T14:40:00Z,19.8020,-84.8570,24.8,1111122 
NDBC,ioos:station:wmo:42056:1,2017-01-10T15:40:00Z,19.8020,-84.8570,24.4,1111122 
NDBC,ioos:station:wmo:42056:1,2017-01-10T16:40:00Z,19.8020,-84.8570,24.6,1111122 
NDBC,ioos:station:wmo:42056:1,2017-01-10T17:40:00Z,19.8020,-84.8570,24.9,1111122 
NDBC,ioos:station:wmo:42056:1,2017-01-10T18:40:00Z,19.8020,-84.8570,24.5,1111122 
NDBC,ioos:station:wmo:42056:1,2017-01-10T19:40:00Z,19.8020,-84.8570,23.5,1111122 
NDBC,ioos:station:wmo:42056:1,2017-01-10T20:40:00Z,19.8020,-84.8570,24.5,1111122 
NDBC,ioos:station:wmo:42056:1,2017-01-10T21:40:00Z,19.8020,-84.8570,25.1,1111122 
NDBC,ioos:station:wmo:42056:1,2017-01-10T22:40:00Z,19.8020,-84.8570,25.2,1111122 
NDBC,ioos:station:wmo:42056:1,2017-01-10T23:40:00Z,19.8020,-84.8570,24.9,1111122 
NDBC,ioos:station:wmo:42056:1,2017-01-11T00:40:00Z,19.8020,-84.8570,24.5,1111122 
NDBC,ioos:station:wmo:42056:1,2017-01-11T01:10:00Z,19.8020,-84.8570,24.7,1111122 
NDBC,ioos:station:wmo:42056:1,2017-01-11T02:40:00Z,19.8020,-84.8570,25.6,1111122 
NDBC,ioos:station:wmo:42056:1,2017-01-11T03:40:00Z,19.8020,-84.8570,25.4,1111122 
NDBC,ioos:station:wmo:42056:1,2017-01-11T04:40:00Z,19.8020,-84.8570,25.2,1111122 
NDBC,ioos:station:wmo:42056:1,2017-01-11T05:40:00Z,19.8020,-84.8570,25.5,1111122 
NDBC,ioos:station:wmo:42056:1,2017-01-11T06:40:00Z,19.8020,-84.8570,25.3,1111122 
NDBC,ioos:station:wmo:42056:1,2017-01-11T07:40:00Z,19.8020,-84.8570,25.1,1111122 
NDBC,ioos:station:wmo:42056:1,2017-01-11T08:50:00Z,19.8020,-84.8570,24.7,1111122 
NDBC,ioos:station:wmo:42056:1,2017-01-11T09:40:00Z,19.8020,-84.8570,24.7,1111122 
NDBC,ioos:station:wmo:42056:1,2017-01-11T10:40:00Z,19.8020,-84.8570,24.6,1111122 
NDBC,ioos:station:wmo:42056:1,2017-01-11T11:40:00Z,19.8020,-84.8570,25.3,1111122 
NDBC,ioos:station:wmo:42056:1,2017-01-11T12:40:00Z,19.8020,-84.8570,25.8,1111122 
NDBC,ioos:station:wmo:42056:1,2017-01-11T13:20:00Z,19.8020,-84.8570,26.3,1111122 
NDBC,ioos:station:wmo:42056:1,2017-01-11T14:40:00Z,19.8020,-84.8570,26.0,1111122 
NDBC,ioos:station:wmo:42056:1,2017-01-11T15:40:00Z,19.8020,-84.8570,26.3,1111122 
NDBC,ioos:station:wmo:42056:1,2017-01-11T16:40:00Z,19.8020,-84.8570,25.5,1111122 
NDBC,ioos:station:wmo:42056:1,2017-01-11T17:40:00Z,19.8020,-84.8570,26.2,1111122 
NDBC,ioos:station:wmo:42056:1,2017-01-11T18:40:00Z,19.8020,-84.8570,26.2,1111122 
NDBC,ioos:station:wmo:42056:1,2017-01-11T19:40:00Z,19.8020,-84.8570,26.3,1111122 
NDBC,ioos:station:wmo:42056:1,2017-01-11T20:40:00Z,19.8020,-84.8570,26.0,1111122 
NDBC,ioos:station:wmo:42056:1,2017-01-11T21:40:00Z,19.8020,-84.8570,26.0,1111122 
NDBC,ioos:station:wmo:42056:1,2017-01-11T22:40:00Z,19.8020,-84.8570,25.9,1111122 
NDBC,ioos:station:wmo:42056:1,2017-01-11T23:40:00Z,19.8020,-84.8570,25.8,1111122 
NDBC,ioos:station:wmo:42056:1,2017-01-12T00:40:00Z,19.8020,-84.8570,26.0,1111122 
NDBC,ioos:station:wmo:42056:1,2017-01-12T01:00:00Z,19.8020,-84.8570,26.1,1111122 
NDBC,ioos:station:wmo:42056:1,2017-01-12T02:40:00Z,19.8020,-84.8570,26.3,1111122 
NDBC,ioos:station:wmo:42056:1,2017-01-12T03:40:00Z,19.8020,-84.8570,26.2,1111122 
NDBC,ioos:station:wmo:42056:1,2017-01-12T04:40:00Z,19.8020,-84.8570,26.2,1111122 
NDBC,ioos:station:wmo:42056:1,2017-01-12T05:40:00Z,19.8020,-84.8570,26.1,1111122 
NDBC,ioos:station:wmo:42056:1,2017-01-12T06:40:00Z,19.8020,-84.8570,26.6,1111122 
NDBC,ioos:station:wmo:42056:1,2017-01-12T07:40:00Z,19.8020,-84.8570,26.4,1111122 
NDBC,ioos:station:wmo:42056:1,2017-01-12T08:40:00Z,19.8020,-84.8570,26.2,1111122 
NDBC,ioos:station:wmo:42056:1,2017-01-12T09:40:00Z,19.8020,-84.8570,26.2,1111122 
NDBC,ioos:station:wmo:42056:1,2017-01-12T10:40:00Z,19.8020,-84.8570,26.1,1111122 
NDBC,ioos:station:wmo:42056:1,2017-01-12T11:40:00Z,19.8020,-84.8570,26.5,1111122 
NDBC,ioos:station:wmo:42056:1,2017-01-12T12:50:00Z,19.8020,-84.8570,26.7,1111122 
NDBC,ioos:station:wmo:42056:1,2017-01-12T13:10:00Z,19.8020,-84.8570,26.7,1111122 
NDBC,ioos:station:wmo:42056:1,2017-01-12T14:40:00Z,19.8020,-84.8570,26.8,1111122 
NDBC,ioos:station:wmo:42056:1,2017-01-12T15:40:00Z,19.8020,-84.8570,26.8,1111122 
NDBC,ioos:station:wmo:42056:1,2017-01-12T16:50:00Z,19.8020,-84.8570,26.8,1111122 
NDBC,ioos:station:wmo:42056:1,2017-01-12T17:40:00Z,19.8020,-84.8570,26.8,1111122 
NDBC,ioos:station:wmo:42056:1,2017-01-12T18:40:00Z,19.8020,-84.8570,27.0,1111122 
NDBC,ioos:station:wmo:42056:1,2017-01-12T19:40:00Z,19.8020,-84.8570,26.9,1111122 
NDBC,ioos:station:wmo:42056:1,2017-01-12T20:40:00Z,19.8020,-84.8570,26.8,1111122 
NDBC,ioos:station:wmo:42056:1,2017-01-12T21:40:00Z,19.8020,-84.8570,26.7,1111122 
NDBC,ioos:station:wmo:42056:1,2017-01-12T22:40:00Z,19.8020,-84.8570,26.7,1111122 
NDBC,ioos:station:wmo:42056:1,2017-01-12T23:40:00Z,19.8020,-84.8570,26.6,1111122 
NDBC,ioos:station:wmo:42056:1,2017-01-13T00:40:00Z,19.8020,-84.8570,26.8,1111122 
NDBC,ioos:station:wmo:42056:1,2017-01-13T01:00:00Z,19.8020,-84.8570,26.8,1111122 
NDBC,ioos:station:wmo:42056:1,2017-01-13T02:40:00Z,19.8020,-84.8570,26.8,1111122 
NDBC,ioos:station:wmo:42056:1,2017-01-13T03:40:00Z,19.8020,-84.8570,26.8,1111122 
NDBC,ioos:station:wmo:42056:1,2017-01-13T03:50:00Z,19.8020,-84.8570,26.6,1111122 
NDBC,ioos:station:wmo:42056:1,2017-01-13T05:40:00Z,19.8020,-84.8570,26.6,1111122 